Weather Roundup
Issued by NWS

Home | Current Version | Previous Version | Text Only | Print | Product List | Glossary On
Versions: 1 2 3 4 5 6 7 8 9 10 11 12 13 14 15 16 17 18 19 20 21 22 23 24 25 26 27 28 29 30 31 32 33 34 35 36 37 38 39 40 41 42 43 44 45 46 47 48 49 50
118
NZUS93 KARX 260410
HRRWXR

CURRENT HOURLY OBSERVATIONS ACROSS
MUCH OF THE UPPER MISSISSIPPI VALLEY
NATIONAL WEATHER SERVICE LA CROSSE WI
1100 PM CDT SAT JUN 25 2016


...SOUTHEAST MINNESOTA...


CITY           SKY/WX    TMP DP  RH WIND       PRES   REMARKS
ROCHESTER      TSTM      74  71  91 SW20G29   29.89R FOG
ROCHESTER/MAYO CLOUDY    78  69  73 SW7       29.88R
WINONA         CLOUDY    81  64  57 SW8       29.84F
AUSTIN         TSTM      72  66  83 W5        29.92R
ALBERT LEA     LGT RAIN  73  72  94 S3        29.91R
DODGE CENTER   TSTM      75  70  83 NW7       29.90R
PRESTON        CLOUDY    77  68  72 S8        29.88F
OWATONNA       CLOUDY    77  66  69 NW6       29.89R
FARIBAULT      CLOUDY    75  68  78 W10       29.88R
$$

...ELSEWHERE IN MINNESOTA...


CITY           SKY/WX    TMP DP  RH WIND       PRES   REMARKS
MINNEAPOLIS    PTCLDY    80  67  64 W8        29.85R
INTNL FALLS    CLEAR     64  55  72 W7        29.72R
DULUTH         CLOUDY    68  67  96 SW7       29.78R
RED WING       CLOUDY    82  66  57 W7        29.83R
REDWOOD FALLS  PTCLDY    72  61  68 SW8       29.90R
MANKATO        CLEAR     75  64  69 W6        29.89R
WORTHINGTON    PTCLDY    69  64  84 W7        29.96R
FAIRMONT       CLEAR     75  66  73 W7        29.91R
$$

...SOUTHWEST WISCONSIN...


CITY           SKY/WX    TMP DP  RH WIND       PRES   REMARKS
LA CROSSE      CLOUDY    85  71  63 S12       29.84S HX  90
PRAIRIE DU CHI CLOUDY    83  69  61 S7        29.89S
BOSCOBEL       CLOUDY    85  74  69 S8        29.88F HX  92
LONE ROCK      CLOUDY    81  75  82 S8        29.90F
PLATTEVILLE    CLOUDY    81  76  86 S10       29.94F
FORT MC COY    CLOUDY    81  73  76 S6        29.87F
CAMP DOUGLAS   CLOUDY    81  74  80 S7        29.87F
MAUSTON-NEW LI CLOUDY    82  74  75 S6        29.87F
VIROQUA        MOCLDY    81  71  73 S9        29.91R
WIS DELLS      PTCLDY    78  74  86 S7        29.91F
$$

...ELSEWHERE IN WISCONSIN...


CITY           SKY/WX    TMP DP  RH WIND       PRES   REMARKS
MILWAUKEE      CLEAR     78  68  71 S7        29.98S
MADISON        CLOUDY    83  73  72 S12       29.93F
GREEN BAY      MOCLDY    78  67  68 S14       29.88F
EAU CLAIRE     TSTM      73  72  96 SW14G24   29.83S VSB 1
BLACK RVR FLS  MOCLDY    79  70  74 CALM      29.85S
MEDFORD        CLOUDY    71  66  86 NW7G17    29.89R THUNDER
WAUSAU         CLOUDY    81  71  71 SW12G18   29.85R
WIS RAPIDS     LGT RAIN  79  73  82 SW7       29.88F
MARSHFIELD     CLOUDY    80  71  74 SW10      29.86S
RICE LAKE      CLOUDY    70  67  92 CALM      29.85R
$$

...NORTHEAST IOWA...


CITY           SKY/WX    TMP DP  RH WIND       PRES   REMARKS
WATERLOO       MOCLDY    80  69  69 S10       29.89R
DUBUQUE        CLOUDY    80  74  81 S12       29.94F
DECORAH        CLOUDY    81  72  74 S7G13     29.89S
MASON CITY     CLOUDY    74  67  78 S14G23    29.92R THUNDER
CHARLES CITY   CLOUDY    79  73  83 S9        29.90F
OELWEIN        CLOUDY    79  73  83 S9        29.93R
$$

...ELSEWHERE IN IOWA...


CITY           SKY/WX    TMP DP  RH WIND       PRES   REMARKS
DES MOINES     CLOUDY    84  71  65 S12       29.91R
IOWA CITY      CLOUDY    81  74  79 S7        29.95F
FORT DODGE     CLOUDY    77  66  69 CALM      29.94R
MARSHALLTOWN   CLEAR     81  71  71 S12       29.90R
CEDAR RAPIDS   MOCLDY    81  73  76 S10       29.93S
$$

...NORTHERN ILLINOIS...


CITY           SKY/WX    TMP DP  RH WIND       PRES   REMARKS
CHICAGO-OHARE  CLEAR     81  70  69 S10       30.01R
CHICAGO-MIDWAY CLEAR     84  68  58 S10       30.01R
MOLINE         PTCLDY    84  73  69 S7        29.96S HX  90
ROCKFORD       PTCLDY    79  72  79 S7        29.99S
PEORIA         PTCLDY    80  72  76 SW6       30.00S
$$

NOTE: "FAIR" INDICATES FEW OR NO CLOUDS BELOW 12,000 FEET WITH NO
SIGNIFICANT WEATHER AND/OR OBSTRUCTIONS TO VISIBILITY. WIND
SPEEDS ARE IN MILES-PER-HOUR.




USA.gov is the U.S. government's official web portal to all federal, state and local government web resources and services.